Location: Unspecified
(44.0704°N, 88.6889°W)
Time: 07:41:57
(UTC+02:00)

deb Explorer IX - Pass Details

Date: 19 June 2019
Orbit: 539 x 1112 km, 38.8° (Epoch: 17 July)

Event Time Altitude Azimuth Distance (km) Brightness Sun altitude
Rises 04:56:14 0° 272° (W) 3,735 ? -11.0°
Reaches altitude 10° 05:00:13 10° 252° (WSW) 2,670 ? -11.4°
Maximum altitude 05:03:42 15° 219° (SW) 2,198 ? -11.8°
Drops below altitude 10° 05:06:57 10° 185° (S) 2,438 ? -12.2°
Enters shadow 05:07:29 - 180° (S) 2,536 ? -12.3°
